ニート彗星

C/2003 E1 ( NEAT )

English version
Home page
Updated on September 22, 2004

---------------------------------------------------------------------

・ プロフィール

発見日 2003年3月9日
発見光度 19.7等
発見者 Near-Earth-Asteroid Tracking Team (Jet Propulsion Laboratory)

・ 軌道要素

Epoch 2004 Feb. 5.0 TT = JDT 2453040.5
T 2004 Feb. 13.6369 TT                                  MPCM
q   3.244907             (2000.0)            P               Q
n   0.0193773      Peri.  103.8672      -0.3756943      +0.8469041
a  13.728012       Node   137.0692      -0.9067409      -0.4198264
e   0.763629       Incl.   33.5378      +0.1915066      -0.3263424
P  50.9
From 145 observations 2003 Mar. 9-2004 Feb. 21, mean residual 0".6.

・ 星図

・ 光度変化

        m1 = 10.0 + 5 logΔ + 10.0 log r

---------------------------------------------------------------------

軌道要素はMPCのEphemerides and Orbital Elementsに掲載されたものです。
星図は StellaNavigator Ver.2.0 for Windows (アストロアーツ 編著 / アスキー出版局刊) で作成したものです。
光度グラフはComet for Windowsで作成したものです。

---------------------------------------------------------------------

Copyright(C) Seiichi Yoshida (comet@aerith.net). All rights reserved.